| time (UTC) | temp F | wind direction | speed knots | gust knots | rain 1hr in | rain 24hr in | rain mn in | humidity % | barometer mb |
| 20260506135656 | 66 | 211 | 3.5 | 3.5 | 0.00 | 0.00 | 0.00 | 79 | 1014.5 |
| 20260506135152 | 66 | 223 | 2.6 | 2.6 | 0.00 | 0.00 | 0.00 | 80 | 1014.7 |
| 20260506134649 | 66 | 225 | 5.2 | 7.0 | 0.00 | 0.00 | 0.00 | 80 | 1014.7 |
| 20260506134145 | 66 | 219 | 2.6 | 3.5 | 0.00 | 0.00 | 0.00 | 80 | 1014.9 |
| 20260506133642 | 66 | 232 | 2.6 | 2.6 | 0.00 | 0.00 | 0.00 | 80 | 1015.0 |
| 20260506133139 | 65 | 236 | 3.5 | 3.5 | 0.00 | 0.00 | 0.00 | 80 | 1015.1 |
| 20260506132637 | 65 | 154 | 2.6 | 2.6 | 0.00 | 0.00 | 0.00 | 81 | 1015.1 |
| 20260506132133 | 65 | 206 | 2.6 | 3.5 | 0.00 | 0.00 | 0.00 | 81 | 1015.1 |
| 20260506131631 | 65 | 226 | 1.7 | 1.7 | 0.00 | 0.00 | 0.00 | 80 | 1015.1 |
| 20260506131127 | 64 | 229 | 1.7 | 1.7 | 0.00 | 0.00 | 0.00 | 81 | 1014.9 |
| 20260506130624 | 64 | 197 | 2.6 | 3.5 | 0.00 | 0.00 | 0.00 | 82 | 1014.9 |
| 20260506130122 | 64 | 227 | 1.7 | 1.7 | 0.00 | 0.00 | 0.00 | 82 | 1015.1 |
| 20260506125620 | 64 | 229 | 2.6 | 2.6 | 0.00 | 0.00 | 0.00 | 82 | 1015.1 |
| 20260506125117 | 64 | 221 | 3.5 | 3.5 | 0.00 | 0.00 | 0.00 | 82 | 1014.9 |
| 20260506124615 | 64 | 151 | 2.6 | 2.6 | 0.00 | 0.00 | 0.00 | 82 | 1014.7 |
| 20260506124112 | 64 | 236 | 0.0 | 0.9 | 0.00 | 0.00 | 0.00 | 82 | 1014.7 |
| 20260506123610 | 63 | 229 | 4.3 | 6.1 | 0.00 | 0.00 | 0.00 | 82 | 1014.5 |
| 20260506123108 | 63 | 190 | 3.5 | 3.5 | 0.00 | 0.00 | 0.00 | 82 | 1014.6 |
| 20260506122604 | 64 | 233 | 3.5 | 3.5 | 0.00 | 0.00 | 0.00 | 82 | 1014.7 |
| 20260506122103 | 64 | 231 | 3.5 | 3.5 | 0.00 | 0.00 | 0.00 | 82 | 1014.7 |
| 20260506121600 | 64 | 206 | 2.6 | 3.5 | 0.00 | 0.00 | 0.00 | 81 | 1014.9 |
| 20260506121056 | 63 | 221 | 1.7 | 2.6 | 0.00 | 0.00 | 0.00 | 82 | 1014.7 |
| 20260506120554 | 63 | 238 | 4.3 | 5.2 | 0.00 | 0.00 | 0.00 | 81 | 1014.8 |
| 20260506120051 | 63 | 134 | 2.6 | 3.5 | 0.00 | 0.00 | 0.00 | 82 | 1014.8 |
| 20260506115549 | 63 | 235 | 3.5 | 5.2 | 0.00 | 0.00 | 0.00 | 81 | 1014.6 |
| 20260506115047 | 63 | 201 | 5.2 | 6.1 | 0.00 | 0.00 | 0.00 | 81 | 1014.7 |
| 20260506114544 | 63 | 212 | 3.5 | 3.5 | 0.00 | 0.00 | 0.00 | 81 | 1014.5 |
| 20260506114043 | 63 | 250 | 7.8 | 8.7 | 0.00 | 0.00 | 0.00 | 81 | 1014.3 |
| 20260506113540 | 63 | 229 | 6.1 | 7.8 | 0.00 | 0.00 | 0.00 | 81 | 1014.3 |
| 20260506113037 | 63 | 231 | 3.5 | 3.5 | 0.00 | 0.00 | 0.00 | 81 | 1014.2 |
| 20260506112534 | 63 | 207 | 1.7 | 1.7 | 0.00 | 0.00 | 0.00 | 81 | 1014.4 |
| 20260506112031 | 63 | 178 | 5.2 | 6.1 | 0.00 | 0.00 | 0.00 | 81 | 1014.0 |
| 20260506111529 | 63 | 221 | 4.3 | 6.1 | 0.00 | 0.00 | 0.00 | 81 | 1013.9 |
| 20260506111026 | 63 | 227 | 5.2 | 6.1 | 0.00 | 0.00 | 0.00 | 81 | 1013.8 |
| 20260506110524 | 63 | 220 | 3.5 | 3.5 | 0.00 | 0.00 | 0.00 | 81 | 1013.8 |
| 20260506110021 | 63 | 243 | 4.3 | 5.2 | 0.00 | 0.00 | 0.00 | 80 | 1013.8 |
| 20260506105517 | 63 | 235 | 3.5 | 3.5 | 0.00 | 0.00 | 0.00 | 80 | 1013.6 |
| 20260506105014 | 63 | 158 | 2.6 | 2.6 | 0.00 | 0.00 | 0.00 | 80 | 1013.5 |
| 20260506104512 | 63 | 212 | 2.6 | 2.6 | 0.00 | 0.00 | 0.00 | 80 | 1013.4 |
| 20260506104010 | 63 | 201 | 3.5 | 5.2 | 0.00 | 0.00 | 0.00 | 80 | 1013.3 |
| 20260506103507 | 63 | 227 | 2.6 | 2.6 | 0.00 | 0.00 | 0.00 | 80 | 1013.5 |
| 20260506103003 | 63 | 172 | 4.3 | 5.2 | 0.00 | 0.00 | 0.00 | 79 | 1013.2 |
| 20260506102502 | 63 | 216 | 1.7 | 2.6 | 0.00 | 0.00 | 0.00 | 79 | 1013.1 |
| 20260506101959 | 63 | 204 | 3.5 | 5.2 | 0.00 | 0.00 | 0.00 | 79 | 1013.1 |
| 20260506101455 | 63 | 230 | 5.2 | 6.1 | 0.00 | 0.00 | 0.00 | 79 | 1013.5 |
| 20260506100952 | 63 | 226 | 4.3 | 5.2 | 0.00 | 0.00 | 0.00 | 79 | 1013.4 |
| 20260506100451 | 63 | 207 | 2.6 | 3.5 | 0.00 | 0.00 | 0.00 | 79 | 1013.3 |
| 20260506095948 | 63 | 235 | 4.3 | 5.2 | 0.00 | 0.00 | 0.00 | 79 | 1013.3 |
| 20260506095447 | 63 | 176 | 2.6 | 3.5 | 0.00 | 0.00 | 0.00 | 79 | 1013.2 |
| 20260506094942 | 63 | 214 | 3.5 | 3.5 | 0.00 | 0.00 | 0.00 | 78 | 1013.3 |
| 20260506094441 | 63 | 227 | 2.6 | 2.6 | 0.00 | 0.00 | 0.00 | 78 | 1013.3 |
| 20260506093938 | 63 | 181 | 3.5 | 3.5 | 0.00 | 0.00 | 0.00 | 78 | 1013.2 |
| 20260506093436 | 64 | 227 | 2.6 | 3.5 | 0.00 | 0.00 | 0.00 | 77 | 1013.5 |
| 20260506092934 | 64 | 220 | 5.2 | 7.0 | 0.00 | 0.00 | 0.00 | 77 | 1013.3 |
| 20260506092432 | 64 | 211 | 4.3 | 6.1 | 0.00 | 0.00 | 0.00 | 77 | 1013.3 |
| 20260506091928 | 64 | 174 | 1.7 | 2.6 | 0.00 | 0.00 | 0.00 | 77 | 1013.4 |
| 20260506091426 | 64 | 198 | 4.3 | 5.2 | 0.00 | 0.00 | 0.00 | 76 | 1013.6 |
| 20260506090918 | 64 | 201 | 4.3 | 5.2 | 0.00 | 0.00 | 0.00 | 76 | 1013.5 |
| 20260506090415 | 64 | 209 | 5.2 | 6.1 | 0.00 | 0.00 | 0.00 | 76 | 1013.6 |
| 20260506085912 | 64 | 248 | 5.2 | 6.1 | 0.00 | 0.00 | 0.00 | 76 | 1013.9 |
| 20260506085409 | 64 | 205 | 3.5 | 3.5 | 0.00 | 0.00 | 0.00 | 75 | 1013.9 |
| 20260506084905 | 64 | 167 | 3.5 | 3.5 | 0.00 | 0.00 | 0.00 | 75 | 1013.8 |
| 20260506084402 | 64 | 162 | 3.5 | 3.5 | 0.00 | 0.00 | 0.00 | 75 | 1014.1 |
| 20260506083858 | 64 | 211 | 5.2 | 7.0 | 0.00 | 0.00 | 0.00 | 75 | 1014.0 |
| 20260506083356 | 64 | 189 | 4.3 | 5.2 | 0.00 | 0.00 | 0.00 | 75 | 1013.9 |
| 20260506082853 | 64 | 189 | 4.3 | 5.2 | 0.00 | 0.00 | 0.00 | 75 | 1013.8 |
| 20260506082350 | 64 | 183 | 1.7 | 2.6 | 0.00 | 0.00 | 0.00 | 75 | 1014.1 |
| 20260506081845 | 64 | 210 | 1.7 | 2.6 | 0.00 | 0.00 | 0.00 | 75 | 1014.0 |
| 20260506081344 | 65 | 201 | 2.6 | 2.6 | 0.00 | 0.00 | 0.00 | 74 | 1014.2 |
| 20260506080841 | 65 | 234 | 3.5 | 3.5 | 0.00 | 0.00 | 0.00 | 74 | 1014.0 |
| 20260506080338 | 65 | 179 | 1.7 | 2.6 | 0.00 | 0.00 | 0.00 | 74 | 1014.0 |
| 20260506073321 | 65 | 200 | 2.6 | 2.6 | 0.00 | 0.00 | 0.00 | 74 | 1014.1 |
| 20260506072818 | 65 | 168 | 2.6 | 3.5 | 0.00 | 0.00 | 0.00 | 74 | 1014.0 |
| 20260506072316 | 65 | 205 | 3.5 | 3.5 | 0.00 | 0.00 | 0.00 | 73 | 1014.3 |
| 20260506071813 | 65 | 182 | 1.7 | 2.6 | 0.00 | 0.00 | 0.00 | 73 | 1014.4 |
| 20260506071311 | 65 | 207 | 2.6 | 2.6 | 0.00 | 0.00 | 0.00 | 74 | 1014.4 |
| 20260506070807 | 65 | 191 | 4.3 | 6.1 | 0.00 | 0.00 | 0.00 | 73 | 1014.6 |
| 20260506070304 | 65 | 149 | 3.5 | 5.2 | 0.00 | 0.00 | 0.00 | 73 | 1014.4 |
| 20260506062242 | 65 | 184 | 1.7 | 1.7 | 0.00 | 0.00 | 0.00 | 74 | 1014.2 |
| 20260506061738 | 65 | 215 | 2.6 | 2.6 | 0.00 | 0.00 | 0.00 | 74 | 1014.3 |
| 20260506061236 | 65 | 159 | 3.5 | 5.2 | 0.00 | 0.00 | 0.00 | 74 | 1014.3 |
| 20260506060734 | 65 | 167 | 3.5 | 3.5 | 0.00 | 0.00 | 0.00 | 74 | 1014.2 |
| 20260506060231 | 65 | 177 | 1.7 | 1.7 | 0.00 | 0.00 | 0.00 | 74 | 1014.3 |
| 20260506051156 | 67 | 158 | 4.3 | 6.1 | 0.00 | 0.00 | 0.00 | 72 | 1014.7 |
| 20260506050654 | 67 | 229 | 3.5 | 3.5 | 0.00 | 0.00 | 0.00 | 72 | 1014.6 |
| 20260506050151 | 67 | 203 | 2.6 | 2.6 | 0.00 | 0.00 | 0.00 | 72 | 1014.6 |
| 20260506044642 | 67 | 164 | 5.2 | 7.0 | 0.00 | 0.00 | 0.00 | 71 | 1014.5 |
| 20260506044139 | 67 | 161 | 3.5 | 3.5 | 0.00 | 0.00 | 0.00 | 70 | 1014.4 |
| 20260506043636 | 67 | 215 | 5.2 | 6.1 | 0.00 | 0.00 | 0.00 | 70 | 1014.5 |
| 20260506043134 | 68 | 216 | 6.1 | 7.0 | 0.00 | 0.00 | 0.00 | 69 | 1014.3 |
| 20260506042633 | 68 | 220 | 4.3 | 6.1 | 0.00 | 0.00 | 0.00 | 69 | 1014.4 |
| 20260506042131 | 68 | 231 | 4.3 | 6.1 | 0.00 | 0.00 | 0.00 | 68 | 1014.5 |
| 20260506041629 | 68 | 184 | 5.2 | 7.0 | 0.00 | 0.00 | 0.00 | 67 | 1014.4 |
| 20260506041125 | 68 | 204 | 4.3 | 5.2 | 0.00 | 0.00 | 0.00 | 67 | 1014.4 |
| 20260506040623 | 68 | 201 | 3.5 | 3.5 | 0.00 | 0.00 | 0.00 | 66 | 1014.4 |
| 20260506040120 | 68 | 197 | 3.5 | 5.2 | 0.00 | 0.00 | 0.00 | 65 | 1014.3 |
| 20260506035616 | 69 | 187 | 2.6 | 3.5 | 0.00 | 0.00 | 0.00 | 64 | 1014.1 |
| 20260506035113 | 69 | 259 | 3.5 | 5.2 | 0.00 | 0.00 | 0.00 | 63 | 1014.1 |
| 20260506034611 | 69 | 157 | 2.6 | 2.6 | 0.00 | 0.00 | 0.00 | 63 | 1014.2 |
| 20260506034107 | 69 | 215 | 3.5 | 3.5 | 0.00 | 0.00 | 0.00 | 61 | 1014.3 |
| 20260506033605 | 69 | 201 | 4.3 | 5.2 | 0.00 | 0.00 | 0.00 | 60 | 1014.3 |
| 20260506033101 | 69 | 186 | 3.5 | 3.5 | 0.00 | 0.00 | 0.00 | 59 | 1014.2 |
| 20260506032559 | 69 | 187 | 3.5 | 3.5 | 0.00 | 0.00 | 0.00 | 58 | 1014.4 |
| 20260506032056 | 70 | 164 | 7.0 | 9.6 | 0.00 | 0.00 | 0.00 | 57 | 1014.3 |
| 20260506031553 | 70 | 177 | 2.6 | 2.6 | 0.00 | 0.00 | 0.00 | 55 | 1014.3 |
| 20260506031050 | 70 | 142 | 2.6 | 2.6 | 0.00 | 0.00 | 0.00 | 54 | 1014.3 |
| 20260506030548 | 71 | 142 | 2.6 | 3.5 | 0.00 | 0.00 | 0.00 | 53 | 1014.4 |
| 20260506030045 | 71 | 230 | 0.9 | 1.7 | 0.00 | 0.00 | 0.00 | 53 | 1014.1 |
| 20260506025542 | 71 | 194 | 0.9 | 0.9 | 0.00 | 0.00 | 0.00 | 53 | 1014.2 |
| 20260506025038 | 71 | 216 | 0.9 | 0.9 | 0.00 | 0.00 | 0.00 | 53 | 1014.0 |
| 20260506024535 | 71 | 199 | 0.0 | 0.9 | 0.00 | 0.00 | 0.00 | 53 | 1014.0 |
| 20260506024031 | 71 | 194 | 1.7 | 1.7 | 0.00 | 0.00 | 0.00 | 53 | 1013.9 |
| 20260506023528 | 71 | 218 | 1.7 | 2.6 | 0.00 | 0.00 | 0.00 | 52 | 1013.9 |
| 20260506023025 | 71 | 201 | 1.7 | 2.6 | 0.00 | 0.00 | 0.00 | 52 | 1013.8 |
| 20260506022523 | 71 | 164 | 1.7 | 2.6 | 0.00 | 0.00 | 0.00 | 52 | 1013.5 |
| 20260506022020 | 72 | 196 | 1.7 | 1.7 | 0.00 | 0.00 | 0.00 | 52 | 1013.8 |
| 20260506021517 | 72 | 206 | 0.9 | 0.9 | 0.00 | 0.00 | 0.00 | 51 | 1013.8 |
| 20260506021014 | 72 | 184 | 1.7 | 2.6 | 0.00 | 0.00 | 0.00 | 51 | 1013.7 |
| 20260506020512 | 72 | 142 | 1.7 | 1.7 | 0.00 | 0.00 | 0.00 | 51 | 1013.9 |
| 20260506020009 | 72 | 155 | 1.7 | 2.6 | 0.00 | 0.00 | 0.00 | 51 | 1014.0 |
| 20260506015507 | 72 | 219 | 0.9 | 0.9 | 0.00 | 0.00 | 0.00 | 52 | 1014.1 |
| 20260506015003 | 72 | 204 | 1.7 | 1.7 | 0.00 | 0.00 | 0.00 | 51 | 1014.1 |
| 20260506014501 | 73 | 210 | 0.9 | 1.7 | 0.00 | 0.00 | 0.00 | 50 | 1014.1 |
| 20260506013956 | 73 | 225 | 0.9 | 0.9 | 0.00 | 0.00 | 0.00 | 49 | 1014.1 |
| 20260506013455 | 73 | 195 | 1.7 | 2.6 | 0.00 | 0.00 | 0.00 | 48 | 1014.0 |
| 20260506012950 | 73 | 198 | 2.6 | 2.6 | 0.00 | 0.00 | 0.00 | 48 | 1014.1 |
| 20260506012447 | 73 | 223 | 0.9 | 1.7 | 0.00 | 0.00 | 0.00 | 48 | 1014.1 |
| 20260506011944 | 74 | 218 | 1.7 | 1.7 | 0.00 | 0.00 | 0.00 | 48 | 1013.8 |
| 20260506011442 | 74 | 225 | 0.9 | 0.9 | 0.00 | 0.00 | 0.00 | 48 | 1014.1 |
| 20260506010938 | 74 | 232 | 1.7 | 1.7 | 0.00 | 0.00 | 0.00 | 48 | 1014.2 |
| 20260506010437 | 74 | 211 | 1.7 | 1.7 | 0.00 | 0.00 | 0.00 | 48 | 1014.1 |
| 20260506005933 | 74 | 237 | 1.7 | 1.7 | 0.00 | 0.00 | 0.00 | 48 | 1013.9 |
| 20260506005431 | 74 | 201 | 0.9 | 1.7 | 0.00 | 0.00 | 0.00 | 48 | 1014.1 |
| 20260506004926 | 74 | 227 | 1.7 | 1.7 | 0.00 | 0.00 | 0.00 | 48 | 1014.1 |
| 20260506004424 | 74 | 217 | 1.7 | 2.6 | 0.00 | 0.00 | 0.00 | 47 | 1013.9 |
| 20260506003920 | 75 | 211 | 0.9 | 0.9 | 0.00 | 0.00 | 0.00 | 47 | 1014.3 |
| 20260506003416 | 75 | 224 | 0.9 | 1.7 | 0.00 | 0.00 | 0.00 | 46 | 1014.0 |
| 20260506002913 | 75 | 229 | 1.7 | 2.6 | 0.00 | 0.00 | 0.00 | 45 | 1014.0 |
| 20260506002409 | 75 | 224 | 0.9 | 1.7 | 0.00 | 0.00 | 0.00 | 46 | 1014.0 |
| 20260506001904 | 75 | 223 | 1.7 | 1.7 | 0.00 | 0.00 | 0.00 | 46 | 1013.6 |
| 20260506001402 | 75 | 231 | 0.9 | 0.9 | 0.00 | 0.00 | 0.00 | 46 | 1013.9 |
| 20260506000859 | 76 | 242 | 1.7 | 1.7 | 0.00 | 0.00 | 0.00 | 45 | 1013.5 |
| 20260506000357 | 76 | 226 | 1.7 | 2.6 | 0.00 | 0.00 | 0.00 | 44 | 1013.6 |
| 20260505235853 | 77 | 233 | 2.6 | 2.6 | 0.00 | 0.00 | 0.00 | 43 | 1013.5 |
| 20260505235351 | 77 | 220 | 3.5 | 3.5 | 0.00 | 0.00 | 0.00 | 43 | 1013.6 |
| 20260505234848 | 77 | 227 | 0.9 | 0.9 | 0.00 | 0.00 | 0.00 | 43 | 1013.6 |
| 20260505234346 | 78 | 225 | 2.6 | 3.5 | 0.00 | 0.00 | 0.00 | 42 | 1013.5 |
| 20260505233842 | 78 | 216 | 3.5 | 5.2 | 0.00 | 0.00 | 0.00 | 41 | 1013.6 |
| 20260505233340 | 78 | 253 | 2.6 | 2.6 | 0.00 | 0.00 | 0.00 | 41 | 1013.5 |
| 20260505232837 | 78 | 169 | 2.6 | 3.5 | 0.00 | 0.00 | 0.00 | 40 | 1013.6 |
| 20260505232335 | 79 | 189 | 2.6 | 3.5 | 0.00 | 0.00 | 0.00 | 40 | 1013.5 |
| 20260505231831 | 79 | 246 | 1.7 | 1.7 | 0.00 | 0.00 | 0.00 | 40 | 1013.7 |
| 20260505231329 | 79 | 233 | 3.5 | 5.2 | 0.00 | 0.00 | 0.00 | 39 | 1013.9 |
| 20260505230827 | 79 | 182 | 5.2 | 6.1 | 0.00 | 0.00 | 0.00 | 39 | 1013.8 |
| 20260505230324 | 79 | 203 | 4.3 | 5.2 | 0.00 | 0.00 | 0.00 | 39 | 1013.4 |
| 20260505225820 | 79 | 224 | 7.8 | 11.3 | 0.00 | 0.00 | 0.00 | 38 | 1013.7 |
| 20260505225318 | 79 | 167 | 7.8 | 11.3 | 0.00 | 0.00 | 0.00 | 37 | 1013.8 |
| 20260505224813 | 79 | 216 | 4.3 | 5.2 | 0.00 | 0.00 | 0.00 | 39 | 1013.6 |
| 20260505224311 | 80 | 175 | 6.1 | 7.0 | 0.00 | 0.00 | 0.00 | 38 | 1013.6 |
| 20260505223808 | 80 | 213 | 4.3 | 5.2 | 0.00 | 0.00 | 0.00 | 38 | 1013.6 |
| 20260505223305 | 80 | 257 | 5.2 | 6.1 | 0.00 | 0.00 | 0.00 | 38 | 1013.7 |
| 20260505222800 | 80 | 238 | 6.1 | 7.8 | 0.00 | 0.00 | 0.00 | 37 | 1013.6 |
| 20260505222257 | 80 | 190 | 6.1 | 8.7 | 0.00 | 0.00 | 0.00 | 37 | 1013.5 |
| 20260505221754 | 80 | 188 | 6.1 | 7.0 | 0.00 | 0.00 | 0.00 | 37 | 1013.5 |
| 20260505221251 | 80 | 228 | 4.3 | 6.1 | 0.00 | 0.00 | 0.00 | 37 | 1013.6 |
| 20260505220742 | 80 | 158 | 5.2 | 6.1 | 0.00 | 0.00 | 0.00 | 38 | 1013.4 |
| 20260505220239 | 80 | 240 | 5.2 | 6.1 | 0.00 | 0.00 | 0.00 | 37 | 1013.4 |
| 20260505215738 | 79 | 212 | 7.8 | 9.6 | 0.00 | 0.00 | 0.00 | 37 | 1013.5 |
| 20260505215235 | 80 | 165 | 4.3 | 5.2 | 0.00 | 0.00 | 0.00 | 37 | 1013.3 |
| 20260505214733 | 80 | 208 | 5.2 | 7.0 | 0.00 | 0.00 | 0.00 | 36 | 1013.3 |
| 20260505214230 | 80 | 221 | 5.2 | 6.1 | 0.00 | 0.00 | 0.00 | 37 | 1013.6 |
| 20260505213727 | 80 | 218 | 5.2 | 6.1 | 0.00 | 0.00 | 0.00 | 35 | 1013.6 |
| 20260505213224 | 80 | 220 | 5.2 | 6.1 | 0.00 | 0.00 | 0.00 | 36 | 1013.6 |
| 20260505212720 | 80 | 232 | 4.3 | 6.1 | 0.00 | 0.00 | 0.00 | 36 | 1013.7 |
| 20260505212218 | 80 | 194 | 4.3 | 8.7 | 0.00 | 0.00 | 0.00 | 36 | 1013.9 |
| 20260505211715 | 81 | 212 | 5.2 | 6.1 | 0.00 | 0.00 | 0.00 | 36 | 1013.7 |
| 20260505211212 | 81 | 251 | 6.1 | 8.7 | 0.00 | 0.00 | 0.00 | 36 | 1013.6 |
| 20260505210709 | 80 | 227 | 7.8 | 8.7 | 0.00 | 0.00 | 0.00 | 36 | 1013.7 |
| 20260505210205 | 79 | 225 | 6.1 | 7.8 | 0.00 | 0.00 | 0.00 | 37 | 1013.9 |
| 20260505205703 | 79 | 244 | 5.2 | 6.1 | 0.00 | 0.00 | 0.00 | 38 | 1014.0 |
| 20260505205201 | 80 | 221 | 6.1 | 7.0 | 0.00 | 0.00 | 0.00 | 37 | 1013.8 |
| 20260505204657 | 80 | 179 | 5.2 | 6.1 | 0.00 | 0.00 | 0.00 | 37 | 1014.1 |
| 20260505204155 | 80 | 206 | 4.3 | 5.2 | 0.00 | 0.00 | 0.00 | 36 | 1014.0 |
| 20260505203652 | 80 | 225 | 8.7 | 9.6 | 0.00 | 0.00 | 0.00 | 36 | 1013.9 |
| 20260505203148 | 80 | 235 | 5.2 | 6.1 | 0.00 | 0.00 | 0.00 | 37 | 1013.9 |
| 20260505202644 | 80 | 229 | 3.5 | 3.5 | 0.00 | 0.00 | 0.00 | 36 | 1013.9 |
| 20260505202140 | 80 | 248 | 7.8 | 7.8 | 0.00 | 0.00 | 0.00 | 36 | 1013.9 |
| 20260505201636 | 80 | 221 | 5.2 | 7.0 | 0.00 | 0.00 | 0.00 | 37 | 1014.4 |
| 20260505201134 | 79 | 220 | 5.2 | 6.1 | 0.00 | 0.00 | 0.00 | 37 | 1014.4 |
| 20260505200632 | 79 | 264 | 3.5 | 3.5 | 0.00 | 0.00 | 0.00 | 37 | 1014.5 |
| 20260505200129 | 80 | 171 | 5.2 | 6.1 | 0.00 | 0.00 | 0.00 | 37 | 1014.6 |
| 20260505195625 | 79 | 233 | 8.7 | 9.6 | 0.00 | 0.00 | 0.00 | 39 | 1014.6 |
| 20260505195123 | 79 | 230 | 3.5 | 5.2 | 0.00 | 0.00 | 0.00 | 38 | 1014.9 |
| 20260505194620 | 80 | 228 | 7.0 | 8.7 | 0.00 | 0.00 | 0.00 | 37 | 1014.7 |
| 20260505194115 | 79 | 235 | 6.1 | 7.8 | 0.00 | 0.00 | 0.00 | 38 | 1014.9 |
| 20260505193613 | 80 | 236 | 7.0 | 8.7 | 0.00 | 0.00 | 0.00 | 38 | 1014.8 |
| 20260505193109 | 80 | 232 | 4.3 | 5.2 | 0.00 | 0.00 | 0.00 | 36 | 1015.1 |
| 20260505192603 | 79 | 237 | 5.2 | 7.0 | 0.00 | 0.00 | 0.00 | 37 | 1015.2 |
| 20260505192059 | 79 | 228 | 10.4 | 13.0 | 0.00 | 0.00 | 0.00 | 35 | 1015.1 |
| 20260505191557 | 80 | 225 | 6.1 | 7.0 | 0.00 | 0.00 | 0.00 | 36 | 1014.9 |
| 20260505191055 | 79 | 243 | 7.0 | 7.8 | 0.00 | 0.00 | 0.00 | 36 | 1015.2 |
| 20260505190550 | 79 | 214 | 9.6 | 12.2 | 0.00 | 0.00 | 0.00 | 35 | 1015.1 |
| 20260505190046 | 80 | 221 | 5.2 | 7.0 | 0.00 | 0.00 | 0.00 | 34 | 1015.3 |
| 20260505185543 | 79 | 249 | 1.7 | 2.6 | 0.00 | 0.00 | 0.00 | 36 | 1015.2 |
| 20260505185039 | 80 | 224 | 7.0 | 7.8 | 0.00 | 0.00 | 0.00 | 36 | 1015.1 |
| 20260505184536 | 79 | 245 | 3.5 | 3.5 | 0.00 | 0.00 | 0.00 | 35 | 1015.4 |
| 20260505184033 | 79 | 183 | 2.6 | 5.2 | 0.00 | 0.00 | 0.00 | 37 | 1015.3 |
| 20260505183529 | 78 | 167 | 4.3 | 6.1 | 0.00 | 0.00 | 0.00 | 37 | 1015.4 |
| 20260505183027 | 79 | 203 | 7.0 | 7.8 | 0.00 | 0.00 | 0.00 | 36 | 1015.7 |
| 20260505182523 | 80 | 219 | 7.0 | 7.8 | 0.00 | 0.00 | 0.00 | 36 | 1015.8 |
| 20260505182020 | 78 | 226 | 4.3 | 5.2 | 0.00 | 0.00 | 0.00 | 37 | 1015.9 |
| 20260505181517 | 77 | 210 | 4.3 | 6.1 | 0.00 | 0.00 | 0.00 | 38 | 1016.1 |
| 20260505181014 | 78 | 239 | 6.1 | 7.8 | 0.00 | 0.00 | 0.00 | 38 | 1016.2 |
| 20260505180509 | 79 | 197 | 3.5 | 5.2 | 0.00 | 0.00 | 0.00 | 37 | 1016.1 |
| 20260505180008 | 78 | 188 | 7.8 | 8.7 | 0.00 | 0.00 | 0.00 | 38 | 1016.3 |
| 20260505175502 | 77 | 235 | 5.2 | 6.1 | 0.00 | 0.00 | 0.00 | 37 | 1016.2 |
| 20260505174959 | 78 | 254 | 5.2 | 7.0 | 0.00 | 0.00 | 0.00 | 37 | 1016.3 |
| 20260505174457 | 79 | 257 | 6.1 | 7.0 | 0.00 | 0.00 | 0.00 | 36 | 1016.5 |
| 20260505173952 | 79 | 230 | 6.1 | 7.0 | 0.00 | 0.00 | 0.00 | 36 | 1016.4 |
| 20260505173449 | 78 | 197 | 6.1 | 7.0 | 0.00 | 0.00 | 0.00 | 36 | 1016.3 |
| 20260505172946 | 78 | 249 | 5.2 | 7.0 | 0.00 | 0.00 | 0.00 | 36 | 1016.2 |
| 20260505172445 | 77 | 212 | 6.1 | 7.0 | 0.00 | 0.00 | 0.00 | 35 | 1016.4 |
| 20260505171944 | 77 | 229 | 8.7 | 9.6 | 0.00 | 0.00 | 0.00 | 36 | 1016.2 |
| 20260505171441 | 77 | 147 | 5.2 | 6.1 | 0.00 | 0.00 | 0.00 | 37 | 1016.1 |
| 20260505170937 | 77 | 224 | 3.5 | 3.5 | 0.00 | 0.00 | 0.00 | 38 | 1016.2 |
| 20260505170434 | 76 | 214 | 8.7 | 8.7 | 0.00 | 0.00 | 0.00 | 38 | 1016.0 |
| 20260505165930 | 77 | 235 | 7.0 | 9.6 | 0.00 | 0.00 | 0.00 | 38 | 1016.0 |
| 20260505165426 | 76 | 244 | 3.5 | 3.5 | 0.00 | 0.00 | 0.00 | 37 | 1016.4 |
| 20260505164921 | 77 | 216 | 7.8 | 8.7 | 0.00 | 0.00 | 0.00 | 40 | 1016.4 |
| 20260505164413 | 77 | 232 | 7.0 | 9.6 | 0.00 | 0.00 | 0.00 | 41 | 1016.6 |
| 20260505163911 | 76 | 179 | 10.4 | 13.9 | 0.00 | 0.00 | 0.00 | 40 | 1016.4 |
| 20260505163410 | 76 | 221 | 11.3 | 13.0 | 0.00 | 0.00 | 0.00 | 39 | 1016.4 |
| 20260505162908 | 76 | 209 | 7.8 | 7.8 | 0.00 | 0.00 | 0.00 | 44 | 1016.6 |
| 20260505162403 | 75 | 220 | 7.0 | 7.8 | 0.00 | 0.00 | 0.00 | 45 | 1016.6 |
| 20260505161900 | 75 | 255 | 3.5 | 5.2 | 0.00 | 0.00 | 0.00 | 43 | 1017.0 |
| 20260505161357 | 76 | 223 | 5.2 | 7.0 | 0.00 | 0.00 | 0.00 | 42 | 1016.8 |
| 20260505160854 | 75 | 231 | 3.5 | 3.5 | 0.00 | 0.00 | 0.00 | 42 | 1017.0 |
| 20260505160353 | 75 | 197 | 4.3 | 6.1 | 0.00 | 0.00 | 0.00 | 41 | 1017.0 |
| 20260505153332 | 74 | 182 | 2.6 | 3.5 | 0.00 | 0.00 | 0.00 | 51 | 1016.9 |
| 20260505152829 | 74 | 237 | 2.6 | 2.6 | 0.00 | 0.00 | 0.00 | 54 | 1017.3 |
| 20260505152326 | 73 | 249 | 1.7 | 2.6 | 0.00 | 0.00 | 0.00 | 54 | 1017.2 |
| 20260505151825 | 72 | 252 | 1.7 | 1.7 | 0.00 | 0.00 | 0.00 | 54 | 1017.3 |
| 20260505151322 | 71 | 245 | 4.3 | 6.1 | 0.00 | 0.00 | 0.00 | 55 | 1017.3 |
| 20260505150819 | 72 | 255 | 5.2 | 7.0 | 0.00 | 0.00 | 0.00 | 55 | 1017.2 |
| 20260505150316 | 72 | 251 | 5.2 | 7.0 | 0.00 | 0.00 | 0.00 | 55 | 1017.3 |
| 20260505140240 | 68 | 222 | 5.2 | 6.1 | 0.00 | 0.00 | 0.00 | 69 | 1016.8 |